EW9798 Weather Reports


time (UTC)temp
C
wind
direction
speed
KPH
gust
KPH
rain 1hr
cm
rain 24hr
cm
rain mn
cm
humidity
%
barometer
mb
20260508130030 11 58 9.7 17.7 0.00 0.00 0.00 71 1018.5
20260508123032 10 49 9.7 16.1 0.00 0.00 0.00 78 1018.4
20260508121651 7 48 8.0 17.7 0.00 0.00 0.00 86 1018.2
20260508120031 6 132 0.0 8.0 0.00 0.00 0.00 87 1018.2
20260508114532 6 135 0.0 0.0 0.00 0.00 0.00 86 1018.1
20260508113030 6 135 0.0 0.0 0.00 0.00 0.00 84 1018.0
20260508111546 6 135 0.0 0.0 0.00 0.00 0.00 82 1017.8
20260508110038 7 135 0.0 0.0 0.00 0.00 0.00 79 1017.8
20260508104529 7 135 0.0 4.8 0.00 0.00 0.00 79 1017.8
20260508101534 7 163 3.2 9.7 0.00 0.00 0.00 77 1017.9
20260508100032 7 135 3.2 6.4 0.00 0.00 0.00 78 1017.8
20260508094533 7 136 1.6 4.8 0.00 0.00 0.00 76 1017.8
20260508093031 7 144 1.6 4.8 0.00 0.00 0.00 76 1017.7
20260508091604 7 135 1.6 4.8 0.00 0.00 0.00 75 1017.6
20260508090032 8 131 3.2 8.0 0.00 0.00 0.00 73 1017.6
20260508084532 9 140 1.6 6.4 0.00 0.00 0.00 70 1017.6
20260508083106 10 148 3.2 6.4 0.00 0.00 0.00 67 1017.6
20260508081530 9 114 6.4 11.3 0.00 0.00 0.00 68 1017.7
20260508080032 10 112 4.8 11.3 0.00 0.00 0.00 66 1017.6
20260508074532 10 117 8.0 12.9 0.00 0.00 0.00 66 1017.6
20260508073032 10 116 6.4 11.3 0.00 0.00 0.00 65 1017.6
20260508070036 9 120 6.4 9.7 0.00 0.00 0.00 64 1017.5
20260508064531 9 116 6.4 11.3 0.00 0.00 0.00 64 1017.5
20260508061537 9 115 6.4 9.7 0.00 0.00 0.00 63 1017.5
20260508060144 9 97 4.8 9.7 0.00 0.00 0.00 62 1017.5
20260508054532 9 113 4.8 9.7 0.00 0.00 0.00 62 1017.5
20260508053030 9 96 4.8 8.0 0.00 0.00 0.00 61 1017.6
20260508051647 10 111 1.6 8.0 0.00 0.00 0.00 59 1017.5
20260508050030 10 138 4.8 9.7 0.00 0.00 0.00 57 1017.5
20260508044606 10 117 4.8 9.7 0.00 0.00 0.00 55 1017.4
20260508043138 11 112 6.4 9.7 0.00 0.00 0.00 53 1017.3
20260508041530 11 112 4.8 8.0 0.00 0.00 0.00 50 1017.3
20260508030033 17 228 1.6 6.4 0.00 0.00 0.00 32 1016.6
20260508024648 17 263 1.6 8.0 0.00 0.00 0.00 29 1016.6
20260508023029 18 270 4.8 12.9 0.00 0.00 0.00 28 1016.5
20260508020029 20 294 8.0 19.3 0.00 0.00 0.00 25 1016.4
20260508014605 20 306 11.3 24.1 0.00 0.00 0.00 24 1016.3
20260508013048 21 304 11.3 27.4 0.00 0.00 0.00 23 1016.3
20260508011530 22 307 9.7 25.7 0.00 0.00 0.00 24 1016.4
20260508010031 21 314 9.7 24.1 0.00 0.00 0.00 23 1016.4
20260508004528 21 321 9.7 27.4 0.00 0.00 0.00 23 1016.4
20260508003029 21 323 11.3 24.1 0.00 0.00 0.00 22 1016.4
20260508000033 21 333 12.9 27.4 0.00 0.00 0.00 23 1016.3
20260507233032 21 316 14.5 25.7 0.00 0.00 0.00 27 1016.4
20260507231607 21 315 14.5 30.6 0.00 0.00 0.00 28 1016.6
20260507224539 21 307 16.1 30.6 0.00 0.00 0.00 30 1016.6
20260507223057 21 306 14.5 30.6 0.00 0.00 0.00 31 1016.8
20260507221532 21 314 12.9 30.6 0.00 0.00 0.00 32 1016.9
20260507220033 21 316 11.3 24.1 0.00 0.00 0.00 35 1017.1
20260507214530 21 334 11.3 22.5 0.00 0.00 0.00 37 1017.3
20260507213030 21 349 9.7 22.5 0.00 0.00 0.00 40 1017.5
20260507211540 21 344 11.3 25.7 0.00 0.00 0.00 41 1017.5
20260507210030 21 339 9.7 19.3 0.00 0.00 0.00 41 1017.7
20260507204530 21 351 9.7 20.9 0.00 0.00 0.00 41 1017.8
20260507203032 20 1 9.7 16.1 0.00 0.00 0.00 41 1018.0
20260507201538 20 338 9.7 17.7 0.00 0.00 0.00 42 1018.1
20260507200031 20 332 11.3 22.5 0.00 0.00 0.00 44 1018.3
20260507194529 19 343 9.7 19.3 0.00 0.00 0.00 46 1018.3
20260507193107 18 350 11.3 19.3 0.00 0.00 0.00 48 1018.5
20260507191530 18 345 9.7 20.9 0.00 0.00 0.00 51 1018.6
20260507190033 17 330 12.9 29.0 0.00 0.00 0.00 52 1018.8
20260507183041 17 351 11.3 24.1 0.00 0.00 0.00 57 1019.2
20260507180107 16 356 8.0 17.7 0.00 0.00 0.00 59 1019.4
20260507173029 15 359 8.0 16.1 0.00 0.00 0.00 64 1019.9
20260507171533 15 349 8.0 17.7 0.00 0.00 0.00 65 1020.1
20260507170031 14 355 8.0 14.5 0.00 0.00 0.00 67 1020.1
20260507164532 13 343 9.7 17.7 0.00 0.00 0.00 69 1020.2
20260507163037 13 11 9.7 19.3 0.00 0.00 0.00 70 1020.3
20260507161532 13 355 6.4 17.7 0.00 0.00 0.00 72 1020.3
20260507160107 12 337 8.0 20.9 0.00 0.00 0.00 73 1020.4
20260507151648 12 327 6.4 12.9 0.00 0.00 0.00 77 1020.6
20260507150038 11 336 8.0 22.5 0.00 0.00 0.00 79 1020.7
20260507144607 11 335 8.0 19.3 0.00 0.00 0.00 81 1020.6
20260507143106 10 357 6.4 17.7 0.00 0.00 0.00 83 1020.6
20260507141530 10 17 4.8 14.5 0.00 0.00 0.00 84 1020.6
20260507140032 10 36 8.0 17.7 0.00 0.00 0.00 85 1020.3
20260507134605 10 51 8.0 16.1 0.00 0.00 0.00 87 1020.2
20260507133028 9 60 8.0 14.5 0.00 0.00 0.00 88 1020.1
20260507131531 8 75 8.0 14.5 0.00 0.00 0.00 87 1020.0